04.05.2024;21:00;76
04.05.2024;20:00;88
04.05.2024;19:00;96
04.05.2024;18:00;97
04.05.2024;17:00;94
04.05.2024;16:00;92
04.05.2024;15:00;88
04.05.2024;14:00;87
04.05.2024;13:00;83
04.05.2024;12:00;79
04.05.2024;11:00;64
04.05.2024;10:00;45
04.05.2024;09:00;23
04.05.2024;08:00;16
04.05.2024;07:00;11
04.05.2024;06:00;13
04.05.2024;05:00;18
04.05.2024;04:00;16
04.05.2024;03:00;18
04.05.2024;02:00;22
04.05.2024;01:00;31
04.05.2024;00:00;54
03.05.2024;23:00;57
03.05.2024;22:00;68
03.05.2024;21:00;76
03.05.2024;20:00;75
03.05.2024;19:00;75
03.05.2024;18:00;78
03.05.2024;17:00;81
03.05.2024;16:00;80
03.05.2024;15:00;80
03.05.2024;14:00;82
03.05.2024;13:00;80
03.05.2024;12:00;72
03.05.2024;11:00;55
03.05.2024;10:00;46
03.05.2024;09:00;31
03.05.2024;08:00;27
03.05.2024;07:00;41
03.05.2024;06:00;44
03.05.2024;05:00;52
03.05.2024;04:00;53
03.05.2024;03:00;50
03.05.2024;02:00;45
03.05.2024;01:00;42
03.05.2024;00:00;40
02.05.2024;23:00;36
02.05.2024;22:00;36
